Location: Newark
(63.1158°N, 8.1461°E)
Time: 14:49:57
(UTC+00:00)

Envisat - Pass Details

Date: 12 December 2019
Orbit: 764 x 766 km, 98.1° (Epoch: 23 January)

Event Time Altitude Azimuth Distance (km) Brightness Sun altitude
Rises 16:26:26 0° 151° (SSE) 3,231 6.2 -14.6°
Reaches altitude 10° 16:28:44 10° 149° (SSE) 2,308 5.4 -14.8°
Maximum altitude 16:33:48 72° 66° (ENE) 811 2.9 -15.3°
Drops below altitude 10° 16:38:54 10° 343° (NNW) 2,321 5.5 -15.9°
Sets 16:41:13 0° 342° (NNW) 3,251 6.2 -16.1°
